Location: Brookview Estates
(36.0476°N, 86.6931°W)
Time: 13:54:07
(UTC+00:00)

STARLINK-1122 - Pass Details

Date: 30 March 2020
Orbit: 549 x 551 km, 53.0° (Epoch: 26 May)

Event Time Altitude Azimuth Distance (km) Brightness Sun altitude
Rises 01:46:15 0° 318° (NW) 2,727 8.3 -20.4°
Reaches altitude 10° 01:48:34 10° 325° (NW) 1,830 7.1 -20.8°
Maximum altitude 01:52:35 46° 39° (NE) 750 4.1 -21.6°
Enters shadow 01:52:37 46° 41° (NE) 751 4.1 -21.6°
